QUETZSAT 1 1 37826U 11054A 21065.42919812 -.00000257 00000-0 00000-0 0 9992 2 37826 0.0496 307.4511 0002614 56.5901 237.8045 1.00269778 30559 BREEZE-M R/B 1 37827U 11054B 21065.40794444 -.00000278 00000-0 00000-0 0 9996 2 37827 17.5619 135.2607 5514997 237.3753 258.1351 2.07657802 70326 BREEZE-M DEB [TANK] 1 37828U 11054C 21065.52293741 .00001488 00000-0 42512-3 0 9994 2 37828 49.3761 191.7724 5565761 130.9077 292.7021 4.67479699156717